Location: Recife
(8.0585°S, 34.8848°W)
Time: 21:13:46
(UTC-03:00)

A-11 Canister half - Pass Details

Date: 16 April 2026
Orbit: 1523 x 1684 km, 47.3° (Epoch: 16 May)

Event Time Altitude Azimuth Distance (km) Brightness Sun altitude
Rises 10:00:21 0° 311° (NW) 4,805 11.6 63.1°
Reaches altitude 10° 10:03:32 10° 308° (NW) 3,799 11.2 63.7°
Maximum altitude 10:12:59 62° 229° (SW) 1,720 10.0 65.3°
Drops below altitude 10° 10:22:14 10° 149° (SSE) 3,707 11.1 66.8°
Sets 10:25:19 0° 146° (SE) 4,683 11.5 67.3°
